Regional Weather Roundup
Issued by NWS Sioux Falls, SD

Home | Current Version | Previous Version | Graphics & Text | Print | Product List | Glossary Off
Versions: 1 2 3 4 5 6 7 8 9 10 11 12 13 14 15 16 17 18 19 20 21 22 23 24 25 26 27 28 29 30 31 32 33 34 35 36 37 38 39 40 41 42 43 44 45 46 47 48 49 50

000
ASUS43 KFSD 311702
RWRFSD

WEATHER ROUNDUP FOR SE SOUTH DAKOTA/SW MINNESOTA/NW IOWA
NATIONAL WEATHER SERVICE SIOUX FALLS SD
1200 PM CDT WED AUG 31 2016

NOTE: "FAIR" INDICATES FEW OR NO CLOUDS BELOW 12,000 FEET WITH NO
SIGNIFICANT WEATHER AND OR OBSTRUCTIONS TO VISIBILITY.


SDZ038>040-050-052>070-311800-
SOUTHEAST SOUTH DAKOTA

CITY           SKY/WX    TMP DP  RH WIND       PRES   REMARKS
CHAMBERLAIN    CLOUDY    74  69  82 SE6       30.24F
HURON          CLOUDY    71  63  75 S7        30.22F
MADISON        FAIR      72  63  73 CALM      30.26S
MITCHELL       CLOUDY    78  64  61 VRB3      30.23S
SIOUX FALLS    PTSUNNY   78  57  48 CALM      30.24R
WINNER         FAIR      80  66  62 E6        30.25S
YANKTON        SUNNY     75  55  50 SE5       30.21F
$$

MNZ071-072-080-081-089-090-097-098-311800-
SOUTHWEST MINNESOTA

CITY           SKY/WX    TMP DP  RH WIND       PRES   REMARKS
FAIRMONT       CLOUDY    73  57  57 N6        30.23S
JACKSON        MOSUNNY   72  54  53 VRB5      30.25S
LUVERNE        MOSUNNY   73  54  49 CALM      30.25S
MARSHALL       MOSUNNY   72  61  68 N3        30.25S
MONTEVIDEO     SUNNY     77  61  57 CALM      30.25S
REDWOOD FALLS  SUNNY     75  54  47 VRB3      30.23S
TRACY          MOSUNNY   74  59  60 NE3       30.25S
WINDOM         MOSUNNY   73  55  53 N3        30.24S
WORTHINGTON    CLOUDY    73  58  59 VRB3      30.25F
$$

IAZ001>003-012>014-020>022-031-032-NEZ013-014-SDZ071-311800-
NORTHWEST IOWA

CITY           SKY/WX    TMP DP  RH WIND       PRES   REMARKS
CHEROKEE       SUNNY     74  57  55 NE5       30.23F
DENISON        SUNNY     75  59  57 NE9       30.19F
ESTHERVILLE    SUNNY     74  59  59 NE5       30.22F
LE MARS        SUNNY     77  57  50 E6        30.24S
ORANGE CITY    SUNNY     75  57  53 E5        30.24S
SHELDON        SUNNY     75  59  57 VRB3      30.22F
SIOUX CITY     SUNNY     77  59  53 NE6       30.22F
SPENCER        SUNNY     77  55  46 NE8       30.23F
STORM LAKE     SUNNY     73  57  56 VRB6      30.24S
$$

ABBREVIATIONS USED IN REMARKS
   TC - TEMPERATURE IN CELSIUS
  WCI - WIND CHILL INDEX
   HX - HEAT INDEX
  VSB - VISIBILITY




USA.gov is the U.S. government's official web portal to all federal, state and local government web resources and services.